Time,TemperatureF,DewpointF,PressureIn,WindDirection,WindDirectionDegrees,WindSpeedMPH,WindSpeedGustMPH,Humidity,HourlyPrecipIn,Conditions,Clouds,dailyrainin,SoftwareType,DateUTC
2013-05-11 00:10:00,49.9,47.0,29.98,North,355,1.0,3.0,90,0.00,,,0.00,weatherlink.com 1.10,2013-05-11 05:10:00,
2013-05-11 00:25:00,50.1,47.0,29.99,North,355,2.0,3.0,90,0.00,,,0.00,weatherlink.com 1.10,2013-05-11 05:25:00,
2013-05-11 00:40:00,49.7,47.0,29.99,North,355,0.0,3.0,91,0.00,,,0.00,weatherlink.com 1.10,2013-05-11 05:40:00,
2013-05-11 00:55:00,48.9,46.0,29.99,North,355,0.0,1.0,91,0.00,,,0.00,weatherlink.com 1.10,2013-05-11 05:55:00,
2013-05-11 01:14:00,48.3,46.0,29.99,North,355,0.0,1.0,92,0.00,,,0.00,weatherlink.com 1.10,2013-05-11 06:14:00,
2013-05-11 01:25:00,47.9,46.0,29.99,North,355,0.0,0.0,92,0.00,,,0.00,weatherlink.com 1.10,2013-05-11 06:25:00,
2013-05-11 01:40:00,47.0,45.0,29.98,North,355,0.0,1.0,92,0.00,,,0.00,weatherlink.com 1.10,2013-05-11 06:40:00,
2013-05-11 01:55:00,46.6,45.0,29.99,North,355,0.0,2.0,93,0.00,,,0.00,weatherlink.com 1.10,2013-05-11 06:55:00,
2013-05-11 02:10:00,46.4,45.0,29.99,North,355,0.0,0.0,94,0.00,,,0.00,weatherlink.com 1.10,2013-05-11 07:10:00,
2013-05-11 02:25:00,46.2,45.0,30.00,North,355,0.0,0.0,94,0.00,,,0.00,weatherlink.com 1.10,2013-05-11 07:25:00,
2013-05-11 02:40:00,46.3,45.0,29.99,North,355,0.0,1.0,95,0.00,,,0.00,weatherlink.com 1.10,2013-05-11 07:40:00,
2013-05-11 02:55:00,47.3,46.0,29.98,North,355,2.0,2.0,96,0.00,,,0.00,weatherlink.com 1.10,2013-05-11 07:55:00,
2013-05-11 03:10:00,47.8,47.0,29.99,North,355,0.0,2.0,95,0.00,,,0.00,weatherlink.com 1.10,2013-05-11 08:10:00,
2013-05-11 03:25:00,48.3,47.0,29.99,North,355,1.0,1.0,96,0.00,,,0.00,weatherlink.com 1.10,2013-05-11 08:25:00,
2013-05-11 03:40:00,48.6,47.0,29.98,North,355,0.0,1.0,95,0.00,,,0.00,weatherlink.com 1.10,2013-05-11 08:40:00,
2013-05-11 03:55:00,48.4,47.0,29.98,North,355,0.0,1.0,95,0.00,,,0.00,weatherlink.com 1.10,2013-05-11 08:55:00,
2013-05-11 04:10:00,47.9,47.0,29.97,North,355,0.0,1.0,95,0.00,,,0.00,weatherlink.com 1.10,2013-05-11 09:10:00,
2013-05-11 04:25:00,47.3,46.0,29.97,North,355,1.0,2.0,95,0.00,,,0.00,weatherlink.com 1.10,2013-05-11 09:25:00,
2013-05-11 04:40:00,47.0,46.0,29.97,North,355,0.0,0.0,95,0.00,,,0.00,weatherlink.com 1.10,2013-05-11 09:40:00,
2013-05-11 04:55:00,47.1,46.0,29.96,North,355,0.0,1.0,96,0.01,,,0.01,weatherlink.com 1.10,2013-05-11 09:55:00,
2013-05-11 05:10:00,46.9,46.0,29.96,North,355,0.0,2.0,95,0.01,,,0.01,weatherlink.com 1.10,2013-05-11 10:10:00,
2013-05-11 05:25:00,46.6,46.0,29.96,North,355,0.0,2.0,96,0.01,,,0.01,weatherlink.com 1.10,2013-05-11 10:25:00,
2013-05-11 05:40:00,46.3,45.0,29.95,North,355,0.0,2.0,96,0.01,,,0.01,weatherlink.com 1.10,2013-05-11 10:40:00,
2013-05-11 05:55:00,46.6,46.0,29.95,WNW,294,1.0,3.0,96,0.00,,,0.01,weatherlink.com 1.10,2013-05-11 10:55:00,
2013-05-11 06:10:00,46.5,46.0,29.95,WNW,294,0.0,1.0,96,0.00,,,0.01,weatherlink.com 1.10,2013-05-11 11:10:00,
2013-05-11 06:25:00,46.8,46.0,29.95,SSW,213,4.0,5.0,96,0.00,,,0.01,weatherlink.com 1.10,2013-05-11 11:25:00,
2013-05-11 06:40:00,47.2,46.0,29.95,SSW,196,0.0,3.0,96,0.00,,,0.01,weatherlink.com 1.10,2013-05-11 11:40:00,
2013-05-11 06:55:00,47.8,47.0,29.95,SSW,202,0.0,2.0,96,0.00,,,0.01,weatherlink.com 1.10,2013-05-11 11:55:00,
2013-05-11 07:10:00,49.0,48.0,29.95,SW,215,3.0,7.0,96,0.00,,,0.01,weatherlink.com 1.10,2013-05-11 12:10:00,
2013-05-11 07:25:00,50.1,49.0,29.95,SSW,213,5.0,9.0,96,0.00,,,0.01,weatherlink.com 1.10,2013-05-11 12:25:00,
2013-05-11 07:40:00,51.1,50.0,29.94,South,184,6.0,8.0,94,0.00,,,0.01,weatherlink.com 1.10,2013-05-11 12:40:00,
2013-05-11 07:55:00,52.2,50.0,29.94,SW,234,6.0,11.0,92,0.00,,,0.01,weatherlink.com 1.10,2013-05-11 12:55:00,
2013-05-11 08:10:00,52.9,50.0,29.94,West,261,6.0,14.0,91,0.00,,,0.01,weatherlink.com 1.10,2013-05-11 13:10:00,
2013-05-11 08:25:00,53.4,51.0,29.93,SW,236,8.0,15.0,90,0.00,,,0.01,weatherlink.com 1.10,2013-05-11 13:25:00,
2013-05-11 08:40:00,54.8,51.0,29.93,West,269,5.0,15.0,87,0.00,,,0.01,weatherlink.com 1.10,2013-05-11 13:40:00,
2013-05-11 08:55:00,54.9,52.0,29.93,West,265,7.0,16.0,88,0.00,,,0.01,weatherlink.com 1.10,2013-05-11 13:55:00,
2013-05-11 09:10:00,54.5,51.0,29.93,West,273,13.0,18.0,88,0.00,,,0.01,weatherlink.com 1.10,2013-05-11 14:10:00,
2013-05-11 09:25:00,54.9,51.0,29.93,NNW,329,8.0,19.0,86,0.00,,,0.01,weatherlink.com 1.10,2013-05-11 14:25:00,
2013-05-11 09:40:00,55.8,52.0,29.93,NW,313,5.0,20.0,86,0.00,,,0.01,weatherlink.com 1.10,2013-05-11 14:40:00,
2013-05-11 09:56:00,56.6,51.0,29.93,WNW,284,10.0,22.0,80,0.00,,,0.01,weatherlink.com 1.10,2013-05-11 14:56:00,
2013-05-11 10:11:00,58.1,51.0,29.93,NNW,336,6.0,25.0,77,0.00,,,0.01,weatherlink.com 1.10,2013-05-11 15:11:00,
2013-05-11 10:26:00,58.9,48.0,29.93,NNW,327,10.0,22.0,68,0.00,,,0.01,weatherlink.com 1.10,2013-05-11 15:26:00,
2013-05-11 10:41:00,59.4,49.0,29.94,NNW,344,3.0,19.0,68,0.00,,,0.01,weatherlink.com 1.10,2013-05-11 15:41:00,
2013-05-11 10:56:00,58.4,43.0,29.95,WNW,297,13.0,27.0,58,0.00,,,0.01,weatherlink.com 1.10,2013-05-11 15:56:00,
2013-05-11 11:11:00,59.3,42.0,29.95,NNW,333,17.0,20.0,53,0.00,,,0.01,weatherlink.com 1.10,2013-05-11 16:11:00,
2013-05-11 11:26:00,59.5,37.0,29.96,NW,312,22.0,24.0,43,0.00,,,0.01,weatherlink.com 1.10,2013-05-11 16:26:00,
2013-05-11 11:41:00,59.0,35.0,29.97,NW,325,6.0,29.0,41,0.00,,,0.01,weatherlink.com 1.10,2013-05-11 16:41:00,
2013-05-11 11:56:00,58.9,36.0,29.97,NW,308,27.0,29.0,43,0.00,,,0.01,weatherlink.com 1.10,2013-05-11 16:56:00,
2013-05-11 12:11:00,58.7,33.0,29.98,NW,311,8.0,26.0,38,0.00,,,0.01,weatherlink.com 1.10,2013-05-11 17:11:00,
2013-05-11 12:26:00,59.3,33.0,29.98,NNW,329,14.0,33.0,38,0.00,,,0.01,weatherlink.com 1.10,2013-05-11 17:26:00,
2013-05-11 12:41:00,59.3,34.0,29.98,NNW,330,15.0,31.0,39,0.00,,,0.01,weatherlink.com 1.10,2013-05-11 17:41:00,
2013-05-11 12:56:00,59.1,33.0,29.98,West,273,11.0,23.0,37,0.00,,,0.01,weatherlink.com 1.10,2013-05-11 17:56:00,
2013-05-11 13:11:00,59.9,35.0,29.98,NW,316,7.0,26.0,40,0.00,,,0.01,weatherlink.com 1.10,2013-05-11 18:11:00,
2013-05-11 13:26:00,60.3,34.0,29.98,NW,315,7.0,22.0,38,0.00,,,0.01,weatherlink.com 1.10,2013-05-11 18:26:00,
2013-05-11 13:41:00,60.3,31.0,29.99,NNW,329,12.0,25.0,33,0.00,,,0.01,weatherlink.com 1.10,2013-05-11 18:41:00,
2013-05-11 13:56:00,60.4,32.0,30.00,NNW,336,15.0,28.0,35,0.00,,,0.01,weatherlink.com 1.10,2013-05-11 18:56:00,
2013-05-11 14:11:00,60.7,31.0,30.00,NNW,333,13.0,27.0,33,0.00,,,0.01,weatherlink.com 1.10,2013-05-11 19:11:00,
2013-05-11 14:26:00,60.3,32.0,30.01,NW,317,18.0,27.0,34,0.00,,,0.01,weatherlink.com 1.10,2013-05-11 19:26:00,
2013-05-11 14:41:00,60.8,31.0,30.01,NW,324,14.0,26.0,33,0.00,,,0.01,weatherlink.com 1.10,2013-05-11 19:41:00,
2013-05-11 14:56:00,60.5,31.0,30.01,NNW,338,12.0,30.0,33,0.00,,,0.01,weatherlink.com 1.10,2013-05-11 19:56:00,
2013-05-11 15:11:00,60.6,33.0,30.02,NNW,341,12.0,26.0,35,0.00,,,0.01,weatherlink.com 1.10,2013-05-11 20:11:00,
2013-05-11 15:26:00,58.8,32.0,30.02,NW,324,24.0,25.0,37,0.00,,,0.01,weatherlink.com 1.10,2013-05-11 20:26:00,
2013-05-11 15:41:00,59.7,33.0,30.03,NNW,327,4.0,30.0,37,0.00,,,0.01,weatherlink.com 1.10,2013-05-11 20:41:00,
2013-05-11 15:56:00,59.4,34.0,30.03,NNW,328,12.0,25.0,38,0.00,,,0.01,weatherlink.com 1.10,2013-05-11 20:56:00,
2013-05-11 16:11:00,59.0,33.0,30.03,NNW,331,8.0,27.0,37,0.00,,,0.01,weatherlink.com 1.10,2013-05-11 21:11:00,
2013-05-11 16:26:00,58.7,32.0,30.04,NW,317,13.0,27.0,37,0.00,,,0.01,weatherlink.com 1.10,2013-05-11 21:26:00,
2013-05-11 16:41:00,58.3,33.0,30.04,WNW,290,15.0,27.0,38,0.00,,,0.01,weatherlink.com 1.10,2013-05-11 21:41:00,
2013-05-11 17:46:00,-999.0,-99.9,0.00,North,-999,-999.0,-999.0,-999,0.00,,,0.00,weatherlink.com 1.10,2013-05-11 22:46:00,
2013-05-11 17:54:00,-999.0,-99.9,30.05,North,-999,-999.0,-999.0,-999,0.00,,,0.00,weatherlink.com 1.10,2013-05-11 22:54:00,
2013-05-11 18:09:00,56.8,29.0,30.05,NNW,332,17.0,26.0,35,0.00,,,0.00,weatherlink.com 1.10,2013-05-11 23:09:00,
2013-05-11 18:24:00,56.4,30.0,30.05,NNW,331,9.0,24.0,36,0.00,,,0.00,weatherlink.com 1.10,2013-05-11 23:24:00,
2013-05-11 18:40:00,56.6,30.0,30.06,NNW,338,12.0,18.0,36,0.00,,,0.00,weatherlink.com 1.10,2013-05-11 23:40:00,
2013-05-11 18:55:00,56.4,30.0,30.06,NNW,327,8.0,18.0,37,0.00,,,0.00,weatherlink.com 1.10,2013-05-11 23:55:00,
2013-05-11 19:10:00,55.0,29.0,30.06,NNW,330,8.0,16.0,37,0.00,,,0.00,weatherlink.com 1.10,2013-05-12 00:10:00,
2013-05-11 19:25:00,54.0,31.0,30.06,NW,324,11.0,15.0,41,0.00,,,0.00,weatherlink.com 1.10,2013-05-12 00:25:00,
2013-05-11 19:40:00,53.5,31.0,30.07,NNW,336,8.0,13.0,42,0.00,,,0.00,weatherlink.com 1.10,2013-05-12 00:40:00,
2013-05-11 19:55:00,52.8,31.0,30.08,NNW,328,7.0,12.0,43,0.00,,,0.00,weatherlink.com 1.10,2013-05-12 00:55:00,
2013-05-11 20:10:00,52.1,30.0,30.08,NNW,336,10.0,13.0,43,0.00,,,0.00,weatherlink.com 1.10,2013-05-12 01:10:00,
2013-05-11 20:25:00,51.0,31.0,30.08,NNW,340,7.0,11.0,47,0.00,,,0.00,weatherlink.com 1.10,2013-05-12 01:25:00,
2013-05-11 20:40:00,50.5,30.0,30.09,NNW,334,5.0,11.0,46,0.00,,,0.00,weatherlink.com 1.10,2013-05-12 01:40:00,
2013-05-11 20:55:00,50.0,29.0,30.09,NNW,336,3.0,9.0,45,0.00,,,0.00,weatherlink.com 1.10,2013-05-12 01:55:00,
2013-05-11 21:10:00,49.1,30.0,30.09,NNW,337,2.0,5.0,48,0.00,,,0.00,weatherlink.com 1.10,2013-05-12 02:10:00,
2013-05-11 21:25:00,48.2,30.0,30.10,NNW,337,0.0,3.0,49,0.00,,,0.00,weatherlink.com 1.10,2013-05-12 02:25:00,
2013-05-11 21:40:00,47.1,30.0,30.10,NNW,337,0.0,3.0,52,0.00,,,0.00,weatherlink.com 1.10,2013-05-12 02:40:00,
2013-05-11 21:55:00,46.5,30.0,30.11,NNW,337,3.0,4.0,53,0.00,,,0.00,weatherlink.com 1.10,2013-05-12 02:55:00,
2013-05-11 22:10:00,46.2,30.0,30.11,NW,306,3.0,3.0,54,0.00,,,0.00,weatherlink.com 1.10,2013-05-12 03:10:00,
2013-05-11 22:25:00,45.8,30.0,30.11,NW,316,2.0,6.0,54,0.00,,,0.00,weatherlink.com 1.10,2013-05-12 03:25:00,
2013-05-11 22:40:00,45.3,30.0,30.11,NW,314,1.0,5.0,56,0.00,,,0.00,weatherlink.com 1.10,2013-05-12 03:40:00,
2013-05-11 22:55:00,44.9,31.0,30.11,NW,306,1.0,7.0,58,0.00,,,0.00,weatherlink.com 1.10,2013-05-12 03:55:00,
2013-05-11 23:10:00,44.6,30.0,30.11,WNW,299,4.0,6.0,57,0.00,,,0.00,weatherlink.com 1.10,2013-05-12 04:10:00,
2013-05-11 23:25:00,44.2,30.0,30.11,WNW,296,4.0,6.0,59,0.00,,,0.00,weatherlink.com 1.10,2013-05-12 04:25:00,
2013-05-11 23:40:00,43.8,31.0,30.12,WNW,288,5.0,9.0,60,0.00,,,0.00,weatherlink.com 1.10,2013-05-12 04:40:00,
2013-05-11 23:55:00,43.6,31.0,30.12,WNW,283,5.0,8.0,61,0.00,,,0.00,weatherlink.com 1.10,2013-05-12 04:55:00,